Location: Atlantic Terminal Houses
(40.6825°N, 73.9706°W)
Time: 06:22:12
(UTC+00:00)

Daily predictions for brighter satellites

Satellite Brightness Start Highest point End
(mag) Time Altitude Azimuth Time Altitude Azimuth Time Altitude Azimuth
Cosmos 1777 Rocket 4.2 22:23:42 10° N 22:28:46 49° ENE 22:33:47 10° SE
Lacrosse 5 2.7 22:24:25 10° NNW 22:28:58 32° NNE 22:33:29 10° E
H-2A R/B 2.7 22:25:34 10° SSE 22:29:27 77° ENE 22:33:23 10° N
Falcon 9 debris 4.3 22:35:23 10° NNW 22:38:24 27° NNE 22:41:24 10° E
Shenzhou-11 Module 1.8 22:37:41 10° WNW 22:40:28 80° SSW 22:43:13 10° ESE
CORIOLIS 4.3 22:35:33 10° SSE 22:40:54 84° WSW 22:46:18 10° NNW
Cosmos 1812 Rocket 4.5 22:37:39 10° SSE 22:41:23 27° E 22:45:09 10° NNE
BREEZE M DEB (TANK) 2.7 22:39:14 10° NW 22:41:26 35° NNE 22:45:58 10° E
NOSS 3-2 (C) 4.1 22:36:55 10° S 22:41:51 32° ESE 22:47:16 10° NE
Cosmos 2228 4.4 22:40:53 10° SSW 22:45:02 43° WNW 22:49:11 10° N
Cosmos 1356 4.1 22:43:05 10° SSW 22:46:28 58° W 22:49:52 10° N
Cosmos 1605 Rocket 4.0 22:44:51 10° N 22:50:57 61° E 22:56:57 10° SSE
Cosmos 1934 Rocket 4.1 22:45:07 10° N 22:51:31 87° W 22:57:53 10° S
NOAA 12 4.1 22:46:40 10° SSE 22:51:57 88° ENE 22:57:17 10° NNW
YAOGAN 1 3.2 22:48:53 10° SE 22:52:47 34° ENE 22:56:43 10° N
Cosmos 1726 3.1 22:51:50 10° SSW 22:55:23 50° W 22:58:57 10° N
Cosmos 1703 3.3 22:52:00 10° N 22:55:56 84° W 22:59:49 10° S
SKYMED 2 3.5 22:51:38 10° NNE 22:55:57 64° E 23:00:15 10° S
Cosmos 2082 Rocket 2.6 22:51:40 10° N 22:57:07 43° ENE 23:02:29 10° SE
Cosmos 44 3.8 22:54:32 10° S 22:59:12 39° ESE 23:03:38 10° NE
Abrixas rocket 3.9 22:57:45 10° WNW 23:00:18 23° NNW 23:02:33 12° NE
Envisat 2.9 22:56:20 10° SSE 23:01:24 83° ENE 23:06:31 10° N
Cosmos 1727 Rocket 4.1 22:55:36 10° SSE 23:01:33 53° E 23:07:31 10° NNE
Unknown 3.9 23:00:59 10° NW 23:04:15 36° NNE 23:06:08 20° E
ATLAS 3B R/B 3.2 23:00:17 10° S 23:06:17 35° ESE 23:12:09 10° NE
Cosmos 1908 3.9 23:03:53 10° SSW 23:07:43 59° W 23:11:34 10° N
CZ-4 R/B 1.4 23:08:05 10° SSE 23:12:16 76° ENE 23:16:30 10° N
COBE Rocket 4.4 23:07:18 10° N 23:12:23 65° WNW 23:17:19 10° SSW
H-2A R/B 4.1 23:13:44 11° NE 23:13:44 11° NE 23:14:16 10° NE
CENTAUR R/B 2.9 23:07:30 10° S 23:12:48 39° ESE 23:18:44 10° NE
USA 116 3.3 23:12:07 10° NNE 23:15:25 63° ESE 23:19:04 10° S
Cosmos 1461 2.9 23:11:56 10° NNW 23:16:05 83° WSW 23:20:21 10° SSE
Cosmos-2242 4.1 23:12:53 10° SE 23:21:50 - NNE 23:16:17 23° E
YAOGAN 6 2.7 23:18:50 10° S 23:22:29 80° WSW 23:26:07 10° NNW
Meteor 2-1 Rocket 4.5 23:17:30 10° SSE 23:22:38 42° E 23:27:51 10° NNE
Cosmos 2084 Rocket 3.5 23:28:18 10° NNW 23:32:41 59° NE 23:34:29 32° ESE
SJ 16-02 2.8 23:29:49 10° N 23:32:06 20° NE 23:32:06 20° NE
DMSP B5D1-3 4.4 23:29:11 10° NNE 23:34:19 67° ESE 23:39:26 10° S
Cosmos 2278 Rocket 3.6 23:29:39 10° SW 23:34:54 38° WNW 23:40:11 10° N
Cosmos 2100 Rocket 4.0 23:31:05 10° N 23:37:09 56° E 23:43:08 10° SSE
Cosmos 2297 3.6 23:34:21 10° SSW 23:40:01 77° ESE 23:45:46 10° NNE
CSL-04 Rocket 3.9 23:36:28 10° S 23:41:59 74° WSW 23:47:28 10° NNW
USA 238 DEB 4.3 23:36:51 10° SW 23:43:22 55° NW 23:50:10 10° NNE
USA 238 4.3 23:36:56 10° SW 23:43:29 55° NW 23:50:16 10° NNE
COSMO-SKYMED 1 4.1 23:39:56 10° N 23:43:56 37° WNW 23:47:54 10° SW
Ariane Rocket 3.0 23:39:46 14° SSE 23:44:05 57° ENE 23:49:05 10° N
Gbstr 26 Del rocket 4.2 23:40:11 10° NW 23:46:26 76° SW 23:51:39 21° SE
Cosmos 468 Rocket 3.9 23:42:37 10° S 23:47:50 67° ESE 23:52:57 11° NNE
Unknown 3.2 23:45:13 10° NW 23:48:37 70° SW 23:48:54 65° S
Cosmos 2016 Rocket 4.2 23:46:43 10° N 23:52:48 48° ENE 23:55:27 31° SE
Cosmos 1300 3.6 23:52:06 10° SSW 23:55:48 48° W 23:59:31 10° N
